Regional Weather Roundup
Issued by NWS

Home | Current Version | Previous Version | Graphics & Text | Print | Product List | Glossary On
Versions: 1 2 3 4 5 6 7 8 9 10 11 12 13 14 15 16 17 18 19 20 21 22 23 24 25 26 27 28 29 30 31 32 33 34 35 36 37 38 39 40 41 42 43 44 45 46 47 48 49
000
ASUS45 KCYS 040910
RWRWY

WYOMING REGIONAL WEATHER ROUNDUP
NATIONAL WEATHER SERVICE CHEYENNE WY
300 AM MDT MON MAY 04 2015

NOTE:  "FAIR" INDICATES FEW OR NO CLOUDS BELOW 12,000 FEET
WITH NO SIGNIFICANT WEATHER AND/OR OBSTRUCTIONS TO VISIBILITY.

WYZ001-041000-
YELLOWSTONE NATIONAL PARK

CITY           SKY/WX    TMP DP  RH WIND       PRES   REMARKS
LK YELLOWSTONE   N/A     29  27  92 CALM      30.11F
W YELLOWSTONE  NOT AVBL

$$
WYZ002>013-054>058-071-098>099-041000-
NORTHERN WYOMING

CITY           SKY/WX    TMP DP  RH WIND       PRES   REMARKS
JACKSON        FAIR      36  36 100 N5        30.07S WCI  32
CODY           FAIR      43  37  81 S6        30.01F
GREYBULL       FAIR      55  39  54 VRB3      29.98S
WORLAND        FAIR      50  42  74 SE10      29.98F
SHERIDAN       FAIR      51  43  74 SE17      29.99F
BUFFALO        CLOUDY    49  43  80 SE13      30.06S
GILLETTE       CLOUDY    48  45  89 SE13      30.05F
HULETT         CLOUDY    46  41  81 SE3       30.08S
NEWCASTLE      LGT RAIN  46  45  93 SE6       30.10S

$$
WYZ014>020-022>026-101>103-041000-
CENTRAL WYOMING

CITY           SKY/WX    TMP DP  RH WIND       PRES   REMARKS
BIG PINEY      FAIR      33  32  96 NE8       30.09F WCI  26
PINEDALE       FAIR      34  34 100 NW7       30.09F WCI  28
DUBOIS         FAIR      34  32  93 NW9       30.08S WCI  26
LANDER         MOCLDY    49  40  71 W6        30.03F
RIVERTON       CLOUDY    49  40  71 E5        30.04S
CASPER         FAIR      45  44  97 CALM      30.05R
DOUGLAS        CLOUDY    50  46  86 SE10      30.06S

$$
WYZ021-027>030-104>119-041000-
SOUTHERN WYOMING

CITY           SKY/WX    TMP DP  RH WIND       PRES   REMARKS
EVANSTON       FAIR      44  37  76 E9        30.07F
KEMMERER       FAIR      36  36 100 N7        30.09F WCI  30
FORT BRIDGER   SUNNY     41  41 100 NE3       30.11F
ROCK SPRINGS   FAIR      41  36  82 SE5       30.07F
DIXON          FAIR      47  41  81 E3        30.09S
RAWLINS        MOCLDY    39  36  89 CALM      30.07F
SARATOGA       FAIR      41  37  87 SE5       30.08S
LARAMIE        CLOUDY    43  40  89 S10       30.10S
CHEYENNE       LGT RAIN  45  40  82 SE10      30.11F
TORRINGTON     CLOUDY    49  39  68 E8        30.08R
PINE BLUFFS    FAIR      46  37  71 SE12      30.10F

$$



USA.gov is the U.S. government's official web portal to all federal, state and local government web resources and services.